Location: Waco, TX
(31.5480°N, 97.1670°W)
Time: 00:53:29
(UTC-06:00)

ISS - Pass Details

Date: 17 January 2018
Orbit: 402 x 407 km, 51.6° (Epoch: 21 January)

Event Time Altitude Azimuth Distance (km) Brightness Sun altitude
Rises 05:58:21 0° 315° (NW) 2,321 - -19.0°
Reaches altitude 10° 06:00:26 10° 316° (NW) 1,460 - -18.5°
Exits shadow 06:03:05 55° 321° (NW) 490 -3.8 -18.0°
Maximum altitude 06:03:42 86° 43° (NE) 409 -3.9 -17.8°
Drops below altitude 10° 06:06:58 10° 135° (SE) 1,454 -0.1 -17.2°
Sets 06:09:03 0° 135° (SE) 2,311 1.1 -16.7°
